Time,TemperatureF,DewpointF,PressureIn,WindDirection,WindDirectionDegrees,WindSpeedMPH,WindSpeedGustMPH,Humidity,HourlyPrecipIn,Conditions,Clouds,dailyrainin,SoftwareType,DateUTC
2013-04-14 00:00:00,36.3,29.5,30.02,WNW,290,3.0,4.0,76,0.00,,,0.00,Wunderground v.1.15,2013-04-14 04:00:00,
2013-04-14 00:01:00,36.3,29.5,30.02,WNW,290,3.0,4.0,76,0.00,,,0.00,Wunderground v.1.15,2013-04-14 04:01:00,
2013-04-14 00:03:00,36.3,29.5,30.02,WNW,290,2.0,4.0,76,0.00,,,0.00,Wunderground v.1.15,2013-04-14 04:03:00,
2013-04-14 00:05:00,36.2,29.4,30.02,WNW,290,2.0,4.0,76,0.00,,,0.00,Wunderground v.1.15,2013-04-14 04:05:00,
2013-04-14 00:11:00,36.2,29.4,30.02,WNW,283,2.0,5.0,76,0.00,,,0.00,Wunderground v.1.15,2013-04-14 04:11:00,
2013-04-14 00:17:00,36.2,29.4,30.02,WNW,295,3.0,5.0,76,0.00,,,0.00,Wunderground v.1.15,2013-04-14 04:17:00,
2013-04-14 00:22:00,36.3,29.5,30.02,WNW,284,4.0,4.0,76,0.00,,,0.00,Wunderground v.1.15,2013-04-14 04:22:00,
2013-04-14 00:27:00,36.3,29.1,30.02,WNW,296,4.0,4.0,75,0.00,,,0.00,Wunderground v.1.15,2013-04-14 04:27:00,
2013-04-14 00:32:00,36.3,29.5,30.02,West,277,3.0,6.0,76,0.00,,,0.00,Wunderground v.1.15,2013-04-14 04:32:00,
2013-04-14 00:38:00,36.3,29.5,30.02,WNW,298,3.0,6.0,76,0.00,,,0.00,Wunderground v.1.15,2013-04-14 04:38:00,
2013-04-14 00:44:00,36.2,29.0,30.02,West,280,2.0,5.0,75,0.00,,,0.00,Wunderground v.1.15,2013-04-14 04:44:00,
2013-04-14 00:50:00,36.2,29.0,30.02,WNW,292,3.0,3.0,75,0.00,,,0.00,Wunderground v.1.15,2013-04-14 04:50:00,
2013-04-14 00:55:00,36.2,29.4,30.02,WNW,293,2.0,4.0,76,0.00,,,0.00,Wunderground v.1.15,2013-04-14 04:55:00,
2013-04-14 01:01:00,36.2,29.4,30.03,WNW,293,2.0,3.0,76,0.00,,,0.00,Wunderground v.1.15,2013-04-14 05:01:00,
2013-04-14 01:06:00,36.2,29.4,30.02,WNW,292,2.0,4.0,76,0.00,,,0.00,Wunderground v.1.15,2013-04-14 05:06:00,
2013-04-14 01:12:00,36.1,29.3,30.03,WNW,292,2.0,3.0,76,0.00,,,0.00,Wunderground v.1.15,2013-04-14 05:12:00,
2013-04-14 01:17:00,36.1,29.3,30.02,WNW,292,1.0,3.0,76,0.00,,,0.00,Wunderground v.1.15,2013-04-14 05:17:00,
2013-04-14 01:22:00,36.1,29.3,30.02,WNW,292,2.0,3.0,76,0.00,,,0.00,Wunderground v.1.15,2013-04-14 05:22:00,
2013-04-14 01:27:00,36.0,29.2,30.03,WNW,292,1.0,3.0,76,0.00,,,0.00,Wunderground v.1.15,2013-04-14 05:27:00,
2013-04-14 01:33:00,35.9,29.1,30.03,WNW,292,0.0,2.0,76,0.00,,,0.00,Wunderground v.1.15,2013-04-14 05:33:00,
2013-04-14 01:39:00,35.9,29.4,30.03,WNW,292,0.0,0.0,77,0.00,,,0.00,Wunderground v.1.15,2013-04-14 05:39:00,
2013-04-14 01:44:00,35.8,29.3,30.04,WNW,292,0.0,2.0,77,0.00,,,0.00,Wunderground v.1.15,2013-04-14 05:44:00,
2013-04-14 01:49:00,35.7,29.2,30.04,WNW,292,0.0,0.0,77,0.00,,,0.00,Wunderground v.1.15,2013-04-14 05:49:00,
2013-04-14 01:55:00,35.7,29.5,30.04,WNW,292,0.0,2.0,78,0.00,,,0.00,Wunderground v.1.15,2013-04-14 05:55:00,
2013-04-14 02:00:00,35.6,29.4,30.04,WNW,292,0.0,0.0,78,0.00,,,0.00,Wunderground v.1.15,2013-04-14 06:00:00,
2013-04-14 02:06:00,35.6,29.4,30.04,WNW,292,0.0,0.0,78,0.00,,,0.00,Wunderground v.1.15,2013-04-14 06:06:00,
2013-04-14 02:11:00,35.6,29.4,30.04,WNW,292,0.0,0.0,78,0.00,,,0.00,Wunderground v.1.15,2013-04-14 06:11:00,
2013-04-14 02:16:00,35.6,29.4,30.04,WNW,292,1.0,2.0,78,0.00,,,0.00,Wunderground v.1.15,2013-04-14 06:16:00,
2013-04-14 02:22:00,35.6,29.4,30.04,WNW,292,1.0,2.0,78,0.00,,,0.00,Wunderground v.1.15,2013-04-14 06:22:00,
2013-04-14 02:28:00,35.7,29.5,30.04,WNW,292,1.0,3.0,78,0.00,,,0.00,Wunderground v.1.15,2013-04-14 06:28:00,
2013-04-14 02:33:00,35.7,29.5,30.04,WNW,292,1.0,2.0,78,0.00,,,0.00,Wunderground v.1.15,2013-04-14 06:33:00,
2013-04-14 02:39:00,35.6,29.4,30.04,WNW,292,0.0,0.0,78,0.00,,,0.00,Wunderground v.1.15,2013-04-14 06:39:00,
2013-04-14 02:45:00,35.6,29.4,30.03,WNW,292,1.0,4.0,78,0.00,,,0.00,Wunderground v.1.15,2013-04-14 06:45:00,
2013-04-14 02:50:00,35.6,29.4,30.04,WNW,292,1.0,1.0,78,0.00,,,0.00,Wunderground v.1.15,2013-04-14 06:50:00,
2013-04-14 02:55:00,35.5,29.3,30.04,WNW,292,0.0,1.0,78,0.00,,,0.00,Wunderground v.1.15,2013-04-14 06:55:00,
2013-04-14 03:01:00,35.5,29.3,30.04,WNW,292,0.0,0.0,78,0.00,,,0.00,Wunderground v.1.15,2013-04-14 07:01:00,
2013-04-14 03:06:00,35.4,29.2,30.04,WNW,292,0.0,2.0,78,0.00,,,0.00,Wunderground v.1.15,2013-04-14 07:06:00,
2013-04-14 03:11:00,35.4,29.2,30.04,WNW,292,0.0,0.0,78,0.00,,,0.00,Wunderground v.1.15,2013-04-14 07:11:00,
2013-04-14 03:17:00,35.3,29.4,30.04,WNW,292,0.0,0.0,79,0.00,,,0.00,Wunderground v.1.15,2013-04-14 07:17:00,
2013-04-14 03:22:00,35.2,29.3,30.04,WNW,292,0.0,0.0,79,0.00,,,0.00,Wunderground v.1.15,2013-04-14 07:22:00,
2013-04-14 03:28:00,35.1,29.2,30.04,WNW,292,0.0,2.0,79,0.00,,,0.00,Wunderground v.1.15,2013-04-14 07:28:00,
2013-04-14 03:33:00,35.0,29.5,30.04,WNW,292,0.0,0.0,80,0.00,,,0.00,Wunderground v.1.15,2013-04-14 07:33:00,
2013-04-14 03:39:00,35.0,29.5,30.04,WNW,292,0.0,0.0,80,0.00,,,0.00,Wunderground v.1.15,2013-04-14 07:39:00,
2013-04-14 03:44:00,34.8,29.3,30.04,WNW,292,0.0,0.0,80,0.00,,,0.00,Wunderground v.1.15,2013-04-14 07:44:00,
2013-04-14 03:49:00,34.6,29.1,30.04,WNW,292,0.0,0.0,80,0.00,,,0.00,Wunderground v.1.15,2013-04-14 07:49:00,
2013-04-14 03:55:00,34.4,28.9,30.04,WNW,292,0.0,0.0,80,0.00,,,0.00,Wunderground v.1.15,2013-04-14 07:55:00,
2013-04-14 04:00:00,34.3,28.8,30.04,WNW,292,0.0,0.0,80,0.00,,,0.00,Wunderground v.1.15,2013-04-14 08:00:00,
2013-04-14 04:06:00,34.0,28.8,30.04,WNW,292,0.0,0.0,81,0.00,,,0.00,Wunderground v.1.15,2013-04-14 08:06:00,
2013-04-14 04:11:00,33.7,28.5,30.04,WNW,292,0.0,0.0,81,0.00,,,0.00,Wunderground v.1.15,2013-04-14 08:11:00,
2013-04-14 04:17:00,33.4,28.5,30.05,WNW,292,0.0,0.0,82,0.00,,,0.00,Wunderground v.1.15,2013-04-14 08:17:00,
2013-04-14 04:22:00,33.0,28.1,30.05,WNW,292,0.0,0.0,82,0.00,,,0.00,Wunderground v.1.15,2013-04-14 08:22:00,
2013-04-14 04:28:00,32.6,28.0,30.05,WNW,292,0.0,0.0,83,0.00,,,0.00,Wunderground v.1.15,2013-04-14 08:28:00,
2013-04-14 04:34:00,32.3,28.0,30.06,WNW,292,0.0,0.0,84,0.00,,,0.00,Wunderground v.1.15,2013-04-14 08:34:00,
2013-04-14 04:39:00,32.0,27.7,30.06,WNW,292,0.0,0.0,84,0.00,,,0.00,Wunderground v.1.15,2013-04-14 08:39:00,
2013-04-14 04:44:00,31.7,27.4,30.06,WNW,292,0.0,0.0,84,0.00,,,0.00,Wunderground v.1.15,2013-04-14 08:44:00,
2013-04-14 04:50:00,31.4,27.4,30.06,WNW,292,0.0,0.0,85,0.00,,,0.00,Wunderground v.1.15,2013-04-14 08:50:00,
2013-04-14 04:56:00,31.2,27.2,30.07,WNW,292,0.0,0.0,85,0.00,,,0.00,Wunderground v.1.15,2013-04-14 08:56:00,
2013-04-14 05:01:00,31.0,27.0,30.07,WNW,292,0.0,0.0,85,0.00,,,0.00,Wunderground v.1.15,2013-04-14 09:01:00,
2013-04-14 05:06:00,30.9,28.9,30.07,WNW,292,0.0,0.0,92,0.00,,,0.00,Wunderground v.1.15,2013-04-14 09:06:00,
2013-04-14 05:12:00,30.8,27.1,30.07,WNW,292,0.0,0.0,86,0.00,,,0.00,Wunderground v.1.15,2013-04-14 09:12:00,
2013-04-14 05:18:00,30.8,27.4,30.07,WNW,292,0.0,0.0,87,0.00,,,0.00,Wunderground v.1.15,2013-04-14 09:18:00,
2013-04-14 05:23:00,30.7,27.3,30.07,WNW,292,0.0,0.0,87,0.00,,,0.00,Wunderground v.1.15,2013-04-14 09:23:00,
2013-04-14 05:28:00,30.7,27.6,30.07,WNW,292,0.0,0.0,88,0.00,,,0.00,Wunderground v.1.15,2013-04-14 09:28:00,
2013-04-14 05:34:00,30.7,27.6,30.07,WNW,292,0.0,0.0,88,0.00,,,0.00,Wunderground v.1.15,2013-04-14 09:34:00,
2013-04-14 05:39:00,30.6,27.5,30.07,WNW,292,0.0,0.0,88,0.00,,,0.00,Wunderground v.1.15,2013-04-14 09:39:00,
2013-04-14 05:45:00,30.5,27.4,30.07,WNW,292,0.0,0.0,88,0.00,,,0.00,Wunderground v.1.15,2013-04-14 09:45:00,
2013-04-14 05:50:00,30.5,27.4,30.07,WNW,292,0.0,0.0,88,0.00,,,0.00,Wunderground v.1.15,2013-04-14 09:50:00,
2013-04-14 05:56:00,30.5,27.4,30.08,WNW,292,0.0,0.0,88,0.00,,,0.00,Wunderground v.1.15,2013-04-14 09:56:00,
2013-04-14 06:01:00,30.4,27.3,30.07,WNW,292,0.0,0.0,88,0.00,,,0.00,Wunderground v.1.15,2013-04-14 10:01:00,
2013-04-14 06:08:00,30.3,27.2,30.07,WNW,292,0.0,0.0,88,0.00,,,0.00,Wunderground v.1.15,2013-04-14 10:08:00,
2013-04-14 06:14:00,30.1,27.0,30.08,WNW,292,0.0,0.0,88,0.00,,,0.00,Wunderground v.1.15,2013-04-14 10:14:00,
2013-04-14 06:20:00,29.9,26.8,30.08,WNW,292,0.0,0.0,88,0.00,,,0.00,Wunderground v.1.15,2013-04-14 10:20:00,
2013-04-14 06:26:00,29.8,27.0,30.08,WNW,292,0.0,0.0,89,0.00,,,0.00,Wunderground v.1.15,2013-04-14 10:26:00,
2013-04-14 06:32:00,29.7,26.6,30.09,WNW,292,0.0,1.0,88,0.00,,,0.00,Wunderground v.1.15,2013-04-14 10:32:00,
2013-04-14 06:37:00,29.5,26.7,30.09,WNW,292,0.0,1.0,89,0.00,,,0.00,Wunderground v.1.15,2013-04-14 10:37:00,
2013-04-14 06:42:00,29.2,26.4,30.10,WNW,292,0.0,0.0,89,0.00,,,0.00,Wunderground v.1.15,2013-04-14 10:42:00,
2013-04-14 06:47:00,29.1,26.3,30.10,WNW,292,0.0,0.0,89,0.00,,,0.00,Wunderground v.1.15,2013-04-14 10:47:00,
2013-04-14 06:53:00,29.0,26.2,30.10,WNW,292,0.0,0.0,89,0.00,,,0.00,Wunderground v.1.15,2013-04-14 10:53:00,
2013-04-14 06:59:00,28.8,26.0,30.10,WNW,292,0.0,0.0,89,0.00,,,0.00,Wunderground v.1.15,2013-04-14 10:59:00,
2013-04-14 07:04:00,28.8,26.2,30.10,WNW,292,0.0,0.0,90,0.00,,,0.00,Wunderground v.1.15,2013-04-14 11:04:00,
2013-04-14 07:09:00,28.8,26.2,30.11,WNW,292,0.0,0.0,90,0.00,,,0.00,Wunderground v.1.15,2013-04-14 11:09:00,
2013-04-14 07:14:00,28.7,26.1,30.10,WNW,292,0.0,0.0,90,0.00,,,0.00,Wunderground v.1.15,2013-04-14 11:14:00,
2013-04-14 07:20:00,28.7,26.1,30.11,WNW,292,0.0,0.0,90,0.00,,,0.00,Wunderground v.1.15,2013-04-14 11:20:00,
2013-04-14 07:25:00,28.8,26.5,30.11,WNW,292,0.0,0.0,91,0.00,,,0.00,Wunderground v.1.15,2013-04-14 11:25:00,
2013-04-14 07:30:00,28.9,26.6,30.11,WNW,292,0.0,0.0,91,0.00,,,0.00,Wunderground v.1.15,2013-04-14 11:30:00,
2013-04-14 07:35:00,29.0,26.7,30.12,WNW,292,0.0,0.0,91,0.00,,,0.00,Wunderground v.1.15,2013-04-14 11:35:00,
2013-04-14 07:42:00,29.4,27.4,30.12,WNW,292,0.0,0.0,92,0.00,,,0.00,Wunderground v.1.15,2013-04-14 11:42:00,
2013-04-14 07:48:00,30.0,28.2,30.12,WNW,292,0.0,1.0,93,0.00,,,0.00,Wunderground v.1.15,2013-04-14 11:48:00,
2013-04-14 07:53:00,30.8,28.8,30.12,WNW,292,0.0,0.0,92,0.00,,,0.00,Wunderground v.1.15,2013-04-14 11:53:00,
2013-04-14 07:58:00,31.4,29.3,30.13,WNW,292,0.0,1.0,92,0.00,,,0.00,Wunderground v.1.15,2013-04-14 11:58:00,
2013-04-14 08:04:00,32.1,30.0,30.13,WNW,292,0.0,0.0,92,0.00,,,0.00,Wunderground v.1.15,2013-04-14 12:04:00,
2013-04-14 08:09:00,32.6,30.3,30.13,WNW,292,0.0,0.0,91,0.00,,,0.00,Wunderground v.1.15,2013-04-14 12:09:00,
2013-04-14 08:14:00,33.3,30.7,30.13,WNW,292,0.0,2.0,90,0.00,,,0.00,Wunderground v.1.15,2013-04-14 12:14:00,
2013-04-14 08:19:00,33.8,30.6,30.13,WNW,292,1.0,2.0,88,0.00,,,0.00,Wunderground v.1.15,2013-04-14 12:19:00,
2013-04-14 08:24:00,34.3,30.5,30.13,WNW,292,1.0,2.0,86,0.00,,,0.00,Wunderground v.1.15,2013-04-14 12:24:00,
2013-04-14 08:29:00,34.5,30.5,30.13,WNW,292,1.0,1.0,85,0.00,,,0.00,Wunderground v.1.15,2013-04-14 12:29:00,
2013-04-14 08:34:00,35.1,30.8,30.12,WNW,292,2.0,2.0,84,0.00,,,0.00,Wunderground v.1.15,2013-04-14 12:34:00,
2013-04-14 08:40:00,35.5,30.8,30.13,WNW,292,1.0,1.0,83,0.00,,,0.00,Wunderground v.1.15,2013-04-14 12:40:00,
2013-04-14 08:45:00,35.8,30.8,30.13,WNW,292,1.0,4.0,82,0.00,,,0.00,Wunderground v.1.15,2013-04-14 12:45:00,
2013-04-14 08:50:00,36.0,30.4,30.13,WNW,292,2.0,4.0,80,0.00,,,0.00,Wunderground v.1.15,2013-04-14 12:50:00,
2013-04-14 08:56:00,36.1,30.5,30.12,WNW,292,2.0,4.0,80,0.00,,,0.00,Wunderground v.1.15,2013-04-14 12:56:00,
2013-04-14 09:02:00,36.2,30.3,30.12,WNW,291,1.0,2.0,79,0.00,,,0.00,Wunderground v.1.15,2013-04-14 13:02:00,
2013-04-14 09:07:00,36.5,30.6,30.12,WNW,291,1.0,2.0,79,0.00,,,0.00,Wunderground v.1.15,2013-04-14 13:07:00,
2013-04-14 09:12:00,36.7,30.8,30.11,NW,316,1.0,3.0,79,0.00,,,0.00,Wunderground v.1.15,2013-04-14 13:12:00,
2013-04-14 09:18:00,36.9,30.4,30.11,NW,316,2.0,4.0,77,0.00,,,0.00,Wunderground v.1.15,2013-04-14 13:18:00,
2013-04-14 09:24:00,36.9,30.4,30.11,NW,316,2.0,5.0,77,0.00,,,0.00,Wunderground v.1.15,2013-04-14 13:24:00,
2013-04-14 09:29:00,37.0,30.5,30.11,North,360,1.0,5.0,77,0.00,,,0.00,Wunderground v.1.15,2013-04-14 13:29:00,
2013-04-14 09:35:00,37.3,30.4,30.11,North,355,2.0,5.0,76,0.00,,,0.00,Wunderground v.1.15,2013-04-14 13:35:00,
2013-04-14 09:41:00,37.6,30.1,30.10,North,355,1.0,2.0,74,0.00,,,0.00,Wunderground v.1.15,2013-04-14 13:41:00,
2013-04-14 09:46:00,38.0,30.4,30.11,North,355,0.0,2.0,74,0.00,,,0.00,Wunderground v.1.15,2013-04-14 13:46:00,
2013-04-14 09:51:00,38.3,30.7,30.11,NNW,338,0.0,0.0,74,0.00,,,0.00,Wunderground v.1.15,2013-04-14 13:51:00,
2013-04-14 09:56:00,38.6,31.0,30.11,NNW,337,0.0,0.0,74,0.00,,,0.00,Wunderground v.1.15,2013-04-14 13:56:00,
2013-04-14 10:02:00,39.3,31.0,30.11,NNW,337,1.0,4.0,72,0.00,,,0.00,Wunderground v.1.15,2013-04-14 14:02:00,
2013-04-14 10:08:00,39.8,30.5,30.10,NNW,339,1.0,4.0,69,0.00,,,0.00,Wunderground v.1.15,2013-04-14 14:08:00,
2013-04-14 10:13:00,39.8,29.4,30.10,NNW,348,2.0,5.0,66,0.00,,,0.00,Wunderground v.1.15,2013-04-14 14:13:00,
2013-04-14 10:18:00,39.6,29.5,30.10,North,355,2.0,5.0,67,0.00,,,0.00,Wunderground v.1.15,2013-04-14 14:18:00,
2013-04-14 10:24:00,39.7,30.0,30.10,North,360,1.0,2.0,68,0.00,,,0.00,Wunderground v.1.15,2013-04-14 14:24:00,
2013-04-14 10:30:00,39.8,29.4,30.10,West,262,1.0,3.0,66,0.00,,,0.00,Wunderground v.1.15,2013-04-14 14:30:00,
2013-04-14 10:35:00,40.0,29.9,30.10,WSW,248,1.0,3.0,67,0.00,,,0.00,Wunderground v.1.15,2013-04-14 14:35:00,
2013-04-14 10:40:00,40.2,29.4,30.11,South,190,1.0,2.0,65,0.00,,,0.00,Wunderground v.1.15,2013-04-14 14:40:00,
2013-04-14 10:45:00,40.2,29.4,30.10,South,190,1.0,3.0,65,0.00,,,0.00,Wunderground v.1.15,2013-04-14 14:45:00,
2013-04-14 10:50:00,40.1,29.3,30.10,South,190,1.0,1.0,65,0.00,,,0.00,Wunderground v.1.15,2013-04-14 14:50:00,
2013-04-14 10:55:00,40.2,29.7,30.10,South,190,0.0,1.0,66,0.00,,,0.00,Wunderground v.1.15,2013-04-14 14:55:00,
2013-04-14 11:01:00,40.3,29.5,30.11,SSW,198,1.0,4.0,65,0.00,,,0.00,Wunderground v.1.15,2013-04-14 15:01:00,
2013-04-14 11:07:00,40.0,29.6,30.11,SW,219,2.0,4.0,66,0.00,,,0.00,Wunderground v.1.15,2013-04-14 15:07:00,
2013-04-14 11:12:00,39.9,29.5,30.11,SW,219,1.0,2.0,66,0.00,,,0.00,Wunderground v.1.15,2013-04-14 15:12:00,
2013-04-14 11:18:00,39.9,29.1,30.13,South,182,1.0,4.0,65,0.00,,,0.00,Wunderground v.1.15,2013-04-14 15:18:00,
2013-04-14 11:23:00,39.8,29.4,30.14,SSW,200,2.0,5.0,66,0.00,,,0.00,Wunderground v.1.15,2013-04-14 15:23:00,
2013-04-14 11:28:00,39.8,29.4,30.14,South,188,3.0,7.0,66,0.00,,,0.00,Wunderground v.1.15,2013-04-14 15:28:00,
2013-04-14 11:34:00,39.7,29.3,30.14,SSW,206,3.0,3.0,66,0.00,,,0.00,Wunderground v.1.15,2013-04-14 15:34:00,
2013-04-14 11:40:00,39.7,28.5,30.14,South,188,3.0,4.0,64,0.00,,,0.00,Wunderground v.1.15,2013-04-14 15:40:00,
2013-04-14 11:45:00,39.7,28.9,30.15,SSW,194,4.0,6.0,65,0.00,,,0.00,Wunderground v.1.15,2013-04-14 15:45:00,
2013-04-14 11:50:00,39.6,28.8,30.15,SSW,205,4.0,6.0,65,0.00,,,0.00,Wunderground v.1.15,2013-04-14 15:50:00,
2013-04-14 11:56:00,39.5,28.7,30.15,South,184,4.0,8.0,65,0.00,,,0.00,Wunderground v.1.15,2013-04-14 15:56:00,
2013-04-14 12:02:00,39.4,29.3,30.15,SSW,206,4.0,6.0,67,0.00,,,0.00,Wunderground v.1.15,2013-04-14 16:02:00,
2013-04-14 12:07:00,39.3,29.3,30.15,SSW,200,3.0,6.0,67,0.00,,,0.00,Wunderground v.1.15,2013-04-14 16:07:00,
2013-04-14 12:12:00,39.3,29.3,30.14,South,184,4.0,4.0,67,0.00,,,0.00,Wunderground v.1.15,2013-04-14 16:12:00,
2013-04-14 12:18:00,39.2,29.5,30.15,SSW,213,3.0,7.0,68,0.00,,,0.00,Wunderground v.1.15,2013-04-14 16:18:00,
2013-04-14 12:23:00,39.2,29.5,30.15,SSW,196,4.0,4.0,68,0.00,,,0.00,Wunderground v.1.15,2013-04-14 16:23:00,
2013-04-14 12:28:00,39.2,29.9,30.14,SSW,199,3.0,5.0,69,0.00,,,0.00,Wunderground v.1.15,2013-04-14 16:28:00,
2013-04-14 12:34:00,39.2,31.3,30.15,SW,221,2.0,3.0,73,0.00,,,0.00,Wunderground v.1.15,2013-04-14 16:34:00,
2013-04-14 12:40:00,39.0,31.7,30.15,SSW,205,3.0,5.0,75,0.00,,,0.00,Wunderground v.1.15,2013-04-14 16:40:00,
2013-04-14 12:45:00,38.6,32.0,30.15,SW,221,4.0,10.0,77,0.00,,,0.00,Wunderground v.1.15,2013-04-14 16:45:00,
2013-04-14 12:51:00,38.3,32.0,30.15,SW,217,5.0,5.0,78,0.00,,,0.00,Wunderground v.1.15,2013-04-14 16:51:00,
2013-04-14 12:57:00,38.0,31.7,30.15,SSW,209,5.0,10.0,78,0.00,,,0.00,Wunderground v.1.15,2013-04-14 16:57:00,
2013-04-14 13:02:00,37.9,32.3,30.15,SW,215,5.0,9.0,80,0.00,,,0.00,Wunderground v.1.15,2013-04-14 17:02:00,
2013-04-14 13:08:00,37.8,32.5,30.15,SSW,192,5.0,9.0,81,0.00,,,0.00,Wunderground v.1.15,2013-04-14 17:08:00,
2013-04-14 13:13:00,37.9,32.6,30.15,SW,229,4.0,7.0,81,0.00,,,0.00,Wunderground v.1.15,2013-04-14 17:13:00,
2013-04-14 13:18:00,37.8,32.8,30.15,SSW,210,3.0,7.0,82,0.00,,,0.00,Wunderground v.1.15,2013-04-14 17:18:00,
2013-04-14 13:23:00,37.7,33.0,30.14,SSW,207,3.0,5.0,83,0.00,,,0.00,Wunderground v.1.15,2013-04-14 17:23:00,
2013-04-14 13:29:00,37.9,33.5,30.14,SSW,202,3.0,3.0,84,0.00,,,0.00,Wunderground v.1.15,2013-04-14 17:29:00,
2013-04-14 13:35:00,38.2,33.2,30.14,South,181,3.0,6.0,82,0.00,,,0.00,Wunderground v.1.15,2013-04-14 17:35:00,
2013-04-14 13:41:00,38.4,33.4,30.14,SSW,198,4.0,5.0,82,0.00,,,0.00,Wunderground v.1.15,2013-04-14 17:41:00,
2013-04-14 13:47:00,38.4,33.1,30.14,South,190,3.0,5.0,81,0.00,,,0.00,Wunderground v.1.15,2013-04-14 17:47:00,
2013-04-14 13:52:00,38.3,33.3,30.13,SE,144,3.0,3.0,82,0.00,,,0.00,Wunderground v.1.15,2013-04-14 17:52:00,
2013-04-14 13:58:00,38.3,33.0,30.12,ESE,122,2.0,3.0,81,0.00,,,0.00,Wunderground v.1.15,2013-04-14 17:58:00,
2013-04-14 14:03:00,38.2,32.9,30.11,ESE,123,1.0,2.0,81,0.00,,,0.00,Wunderground v.1.15,2013-04-14 18:03:00,
2013-04-14 14:09:00,38.1,33.1,30.11,SE,128,0.0,2.0,82,0.00,,,0.00,Wunderground v.1.15,2013-04-14 18:09:00,
2013-04-14 14:14:00,38.0,33.3,30.10,SE,132,1.0,3.0,83,0.00,,,0.01,Wunderground v.1.15,2013-04-14 18:14:00,
2013-04-14 14:19:00,38.0,33.6,30.10,SE,132,1.0,1.0,84,0.00,,,0.01,Wunderground v.1.15,2013-04-14 18:19:00,
2013-04-14 14:25:00,38.1,34.0,30.10,SE,132,0.0,1.0,85,0.00,,,0.01,Wunderground v.1.15,2013-04-14 18:25:00,
2013-04-14 14:30:00,38.2,34.4,30.09,SE,133,0.0,3.0,86,0.05,,,0.02,Wunderground v.1.15,2013-04-14 18:30:00,
2013-04-14 14:36:00,38.3,34.5,30.09,SE,128,0.0,3.0,86,0.05,,,0.02,Wunderground v.1.15,2013-04-14 18:36:00,
2013-04-14 14:42:00,38.3,34.5,30.10,SE,134,1.0,3.0,86,0.04,,,0.02,Wunderground v.1.15,2013-04-14 18:42:00,
2013-04-14 14:48:00,38.5,35.0,30.11,SE,137,1.0,4.0,87,0.00,,,0.02,Wunderground v.1.15,2013-04-14 18:48:00,
2013-04-14 14:53:00,38.8,35.0,30.11,SE,137,1.0,3.0,86,0.00,,,0.02,Wunderground v.1.15,2013-04-14 18:53:00,
2013-04-14 14:58:00,39.2,35.4,30.11,South,178,1.0,3.0,86,0.00,,,0.02,Wunderground v.1.15,2013-04-14 18:58:00,
2013-04-14 15:04:00,39.5,35.1,30.11,SE,125,1.0,5.0,84,0.00,,,0.02,Wunderground v.1.15,2013-04-14 19:04:00,
2013-04-14 15:10:00,39.9,35.8,30.10,SSE,153,2.0,3.0,85,0.00,,,0.02,Wunderground v.1.15,2013-04-14 19:10:00,
2013-04-14 15:16:00,40.2,35.1,30.09,SSE,151,3.0,5.0,82,0.00,,,0.02,Wunderground v.1.15,2013-04-14 19:16:00,
2013-04-14 15:21:00,40.4,35.0,30.09,South,184,4.0,10.0,81,0.00,,,0.02,Wunderground v.1.15,2013-04-14 19:21:00,
2013-04-14 15:27:00,40.9,36.1,30.09,SE,141,3.0,10.0,83,0.00,,,0.02,Wunderground v.1.15,2013-04-14 19:27:00,
2013-04-14 15:32:00,41.7,36.9,30.09,SE,141,2.0,6.0,83,0.00,,,0.02,Wunderground v.1.15,2013-04-14 19:32:00,
2013-04-14 15:37:00,42.2,36.5,30.09,SSE,163,2.0,6.0,80,0.00,,,0.02,Wunderground v.1.15,2013-04-14 19:37:00,
2013-04-14 15:42:00,42.3,35.9,30.09,SSW,211,3.0,6.0,78,0.00,,,0.02,Wunderground v.1.15,2013-04-14 19:42:00,
2013-04-14 15:48:00,42.3,36.3,30.09,South,171,3.0,6.0,79,0.00,,,0.02,Wunderground v.1.15,2013-04-14 19:48:00,
2013-04-14 15:54:00,42.6,35.9,30.09,ESE,113,2.0,4.0,77,0.00,,,0.02,Wunderground v.1.15,2013-04-14 19:54:00,
2013-04-14 16:00:00,42.9,35.9,30.08,SE,137,2.0,9.0,76,0.00,,,0.02,Wunderground v.1.15,2013-04-14 20:00:00,
2013-04-14 16:05:00,43.1,36.7,30.08,SE,128,2.0,9.0,78,0.00,,,0.02,Wunderground v.1.15,2013-04-14 20:05:00,
2013-04-14 16:11:00,43.4,36.7,30.08,SE,132,2.0,3.0,77,0.00,,,0.02,Wunderground v.1.15,2013-04-14 20:11:00,
2013-04-14 16:17:00,44.1,36.7,30.08,SE,129,2.0,7.0,75,0.00,,,0.02,Wunderground v.1.15,2013-04-14 20:17:00,
2013-04-14 16:23:00,44.6,37.2,30.07,SE,141,3.0,3.0,75,0.00,,,0.02,Wunderground v.1.15,2013-04-14 20:23:00,
2013-04-14 16:29:00,45.2,37.4,30.06,ESE,116,2.0,11.0,74,0.00,,,0.02,Wunderground v.1.15,2013-04-14 20:29:00,
2013-04-14 16:34:00,45.2,37.1,30.06,SE,143,2.0,11.0,73,0.00,,,0.02,Wunderground v.1.15,2013-04-14 20:34:00,
2013-04-14 16:39:00,45.5,38.0,30.06,SE,141,3.0,4.0,75,0.00,,,0.02,Wunderground v.1.15,2013-04-14 20:39:00,
2013-04-14 16:45:00,45.5,37.3,30.06,SE,137,3.0,13.0,73,0.00,,,0.02,Wunderground v.1.15,2013-04-14 20:45:00,
2013-04-14 16:50:00,45.6,37.1,30.06,ESE,115,3.0,6.0,72,0.00,,,0.02,Wunderground v.1.15,2013-04-14 20:50:00,
2013-04-14 16:55:00,45.9,37.0,30.05,SSE,150,3.0,6.0,71,0.00,,,0.02,Wunderground v.1.15,2013-04-14 20:55:00,
2013-04-14 17:00:00,46.4,37.5,30.05,SE,133,2.0,9.0,71,0.00,,,0.02,Wunderground v.1.15,2013-04-14 21:00:00,
2013-04-14 17:06:00,47.1,37.8,30.05,SE,141,2.0,9.0,70,0.00,,,0.02,Wunderground v.1.15,2013-04-14 21:06:00,
2013-04-14 17:11:00,47.3,37.3,30.04,SE,130,2.0,3.0,68,0.00,,,0.02,Wunderground v.1.15,2013-04-14 21:11:00,
2013-04-14 17:16:00,47.2,37.5,30.04,ESE,114,3.0,4.0,69,0.00,,,0.02,Wunderground v.1.15,2013-04-14 21:16:00,
2013-04-14 17:22:00,47.4,37.7,30.04,SSE,155,2.0,6.0,69,0.00,,,0.02,Wunderground v.1.15,2013-04-14 21:22:00,
2013-04-14 17:28:00,47.5,38.2,30.03,SE,130,3.0,6.0,70,0.00,,,0.02,Wunderground v.1.15,2013-04-14 21:28:00,
2013-04-14 17:33:00,47.5,37.8,30.03,South,180,3.0,10.0,69,0.00,,,0.02,Wunderground v.1.15,2013-04-14 21:33:00,
2013-04-14 17:39:00,47.5,37.1,30.03,SE,138,4.0,5.0,67,0.00,,,0.02,Wunderground v.1.15,2013-04-14 21:39:00,
2013-04-14 17:44:00,47.4,37.4,30.03,SSE,162,4.0,11.0,68,0.00,,,0.02,Wunderground v.1.15,2013-04-14 21:44:00,
2013-04-14 17:50:00,47.6,37.2,30.02,SE,146,4.0,10.0,67,0.00,,,0.02,Wunderground v.1.15,2013-04-14 21:50:00,
2013-04-14 17:55:00,47.8,37.7,30.02,SE,146,3.0,10.0,68,0.00,,,0.02,Wunderground v.1.15,2013-04-14 21:55:00,
2013-04-14 18:01:00,48.0,37.6,30.03,East,83,3.0,11.0,67,0.00,,,0.02,Wunderground v.1.15,2013-04-14 22:01:00,
2013-04-14 18:06:00,48.1,37.7,30.03,SE,142,4.0,11.0,67,0.00,,,0.02,Wunderground v.1.15,2013-04-14 22:06:00,
2013-04-14 18:12:00,48.0,37.2,30.03,SE,143,5.0,6.0,66,0.00,,,0.02,Wunderground v.1.15,2013-04-14 22:12:00,
2013-04-14 18:18:00,48.0,37.6,30.03,SE,132,5.0,6.0,67,0.00,,,0.02,Wunderground v.1.15,2013-04-14 22:18:00,
2013-04-14 18:23:00,48.1,37.7,30.04,SSW,200,4.0,8.0,67,0.00,,,0.02,Wunderground v.1.15,2013-04-14 22:23:00,
2013-04-14 18:29:00,47.9,37.8,30.04,South,184,6.0,6.0,68,0.00,,,0.02,Wunderground v.1.15,2013-04-14 22:29:00,
2013-04-14 18:34:00,47.6,37.6,30.04,SE,138,7.0,11.0,68,0.00,,,0.02,Wunderground v.1.15,2013-04-14 22:34:00,
2013-04-14 18:39:00,47.2,37.5,30.04,SSE,157,7.0,7.0,69,0.00,,,0.02,Wunderground v.1.15,2013-04-14 22:39:00,
2013-04-14 18:44:00,47.2,37.9,30.04,South,171,6.0,13.0,70,0.00,,,0.02,Wunderground v.1.15,2013-04-14 22:44:00,
2013-04-14 18:50:00,47.1,37.8,30.04,South,172,7.0,7.0,70,0.00,,,0.02,Wunderground v.1.15,2013-04-14 22:50:00,
2013-04-14 18:56:00,46.6,38.1,30.04,SSE,163,6.0,11.0,72,0.00,,,0.02,Wunderground v.1.15,2013-04-14 22:56:00,
2013-04-14 19:02:00,46.6,38.1,30.04,South,178,5.0,7.0,72,0.00,,,0.02,Wunderground v.1.15,2013-04-14 23:02:00,
2013-04-14 19:08:00,46.7,38.1,30.04,SE,125,5.0,12.0,72,0.00,,,0.02,Wunderground v.1.15,2013-04-14 23:08:00,
2013-04-14 19:13:00,46.7,38.1,30.04,SSE,165,6.0,6.0,72,0.00,,,0.02,Wunderground v.1.15,2013-04-14 23:13:00,
2013-04-14 19:19:00,46.5,38.0,30.04,South,177,5.0,5.0,72,0.00,,,0.02,Wunderground v.1.15,2013-04-14 23:19:00,
2013-04-14 19:24:00,46.5,38.0,30.04,South,171,5.0,14.0,72,0.00,,,0.02,Wunderground v.1.15,2013-04-14 23:24:00,
2013-04-14 19:29:00,46.5,37.6,30.04,ESE,110,4.0,10.0,71,0.00,,,0.02,Wunderground v.1.15,2013-04-14 23:29:00,
2013-04-14 19:34:00,46.3,37.4,30.04,SSW,198,5.0,10.0,71,0.00,,,0.02,Wunderground v.1.15,2013-04-14 23:34:00,
2013-04-14 19:39:00,46.0,36.8,30.04,SSW,206,7.0,7.0,70,0.00,,,0.02,Wunderground v.1.15,2013-04-14 23:39:00,
2013-04-14 19:45:00,45.8,36.6,30.03,SSW,192,6.0,8.0,70,0.00,,,0.02,Wunderground v.1.15,2013-04-14 23:45:00,
2013-04-14 19:51:00,45.4,36.2,30.04,South,181,6.0,6.0,70,0.00,,,0.02,Wunderground v.1.15,2013-04-14 23:51:00,
2013-04-14 19:57:00,45.0,36.2,30.04,South,169,7.0,8.0,71,0.00,,,0.02,Wunderground v.1.15,2013-04-14 23:57:00,
2013-04-14 20:02:00,44.6,35.8,30.04,SSE,157,5.0,7.0,71,0.00,,,0.02,Wunderground v.1.15,2013-04-15 00:02:00,
2013-04-14 20:07:00,44.4,35.9,30.03,South,169,4.0,7.0,72,0.00,,,0.02,Wunderground v.1.15,2013-04-15 00:07:00,
2013-04-14 20:12:00,44.0,35.9,30.03,SSE,149,4.0,4.0,73,0.00,,,0.02,Wunderground v.1.15,2013-04-15 00:12:00,
2013-04-14 20:17:00,43.8,35.7,30.03,SE,137,3.0,7.0,73,0.00,,,0.02,Wunderground v.1.15,2013-04-15 00:17:00,
2013-04-14 20:23:00,43.5,35.8,30.03,SE,134,3.0,7.0,74,0.00,,,0.02,Wunderground v.1.15,2013-04-15 00:23:00,
2013-04-14 20:28:00,43.2,35.5,30.03,SSE,148,4.0,10.0,74,0.00,,,0.02,Wunderground v.1.15,2013-04-15 00:28:00,
2013-04-14 20:34:00,42.9,35.5,30.03,SE,129,5.0,10.0,75,0.00,,,0.02,Wunderground v.1.15,2013-04-15 00:34:00,
2013-04-14 20:39:00,42.7,35.3,30.02,SE,140,4.0,8.0,75,0.00,,,0.02,Wunderground v.1.15,2013-04-15 00:39:00,
2013-04-14 20:45:00,42.5,35.5,30.02,SE,141,5.0,8.0,76,0.00,,,0.02,Wunderground v.1.15,2013-04-15 00:45:00,
2013-04-14 20:50:00,42.4,35.4,30.02,SE,144,5.0,9.0,76,0.00,,,0.02,Wunderground v.1.15,2013-04-15 00:50:00,
2013-04-14 20:55:00,42.2,35.2,30.02,SSE,162,5.0,9.0,76,0.00,,,0.02,Wunderground v.1.15,2013-04-15 00:55:00,
2013-04-14 21:00:00,42.1,35.4,30.02,SSE,155,4.0,5.0,77,0.00,,,0.02,Wunderground v.1.15,2013-04-15 01:00:00,
2013-04-14 21:06:00,41.8,35.4,30.01,SE,134,3.0,5.0,78,0.00,,,0.02,Wunderground v.1.15,2013-04-15 01:06:00,
2013-04-14 21:12:00,41.6,35.2,30.01,SSE,155,3.0,6.0,78,0.00,,,0.02,Wunderground v.1.15,2013-04-15 01:12:00,
2013-04-14 21:18:00,41.5,35.2,30.01,SE,138,3.0,7.0,78,0.00,,,0.02,Wunderground v.1.15,2013-04-15 01:18:00,
2013-04-14 21:23:00,41.4,35.4,30.01,SSE,159,3.0,5.0,79,0.00,,,0.02,Wunderground v.1.15,2013-04-15 01:23:00,
2013-04-14 21:29:00,41.2,35.2,30.00,SE,138,4.0,5.0,79,0.00,,,0.02,Wunderground v.1.15,2013-04-15 01:29:00,
2013-04-14 21:34:00,41.1,35.1,30.00,SE,133,4.0,10.0,79,0.00,,,0.02,Wunderground v.1.15,2013-04-15 01:34:00,
2013-04-14 21:40:00,41.2,35.2,30.00,SSE,152,5.0,5.0,79,0.00,,,0.02,Wunderground v.1.15,2013-04-15 01:40:00,
2013-04-14 21:45:00,41.2,35.2,30.00,SE,139,5.0,6.0,79,0.00,,,0.02,Wunderground v.1.15,2013-04-15 01:45:00,
2013-04-14 21:51:00,41.2,34.9,30.01,South,175,4.0,9.0,78,0.00,,,0.02,Wunderground v.1.15,2013-04-15 01:51:00,
2013-04-14 21:56:00,41.3,35.0,30.01,South,174,4.0,9.0,78,0.00,,,0.02,Wunderground v.1.15,2013-04-15 01:56:00,
2013-04-14 22:01:00,41.3,35.0,30.01,SSE,155,5.0,9.0,78,0.00,,,0.02,Wunderground v.1.15,2013-04-15 02:01:00,
2013-04-14 22:06:00,41.3,35.0,30.00,SE,132,6.0,14.0,78,0.00,,,0.02,Wunderground v.1.15,2013-04-15 02:06:00,
2013-04-14 22:12:00,41.3,35.0,30.00,South,186,6.0,7.0,78,0.00,,,0.02,Wunderground v.1.15,2013-04-15 02:12:00,
2013-04-14 22:17:00,41.3,35.0,30.00,SSE,165,5.0,7.0,78,0.00,,,0.02,Wunderground v.1.15,2013-04-15 02:17:00,
2013-04-14 22:22:00,41.3,35.0,30.00,SE,145,6.0,11.0,78,0.00,,,0.02,Wunderground v.1.15,2013-04-15 02:22:00,
2013-04-14 22:27:00,41.3,35.0,29.99,East,99,5.0,11.0,78,0.00,,,0.02,Wunderground v.1.15,2013-04-15 02:27:00,
2013-04-14 22:33:00,41.2,34.9,29.99,SSE,147,4.0,12.0,78,0.00,,,0.02,Wunderground v.1.15,2013-04-15 02:33:00,
2013-04-14 22:39:00,41.2,34.9,29.99,SE,145,5.0,12.0,78,0.00,,,0.02,Wunderground v.1.15,2013-04-15 02:39:00,
2013-04-14 22:45:00,41.2,34.9,29.99,SE,141,4.0,5.0,78,0.00,,,0.02,Wunderground v.1.15,2013-04-15 02:45:00,
2013-04-14 22:50:00,41.1,34.8,29.99,South,173,4.0,4.0,78,0.00,,,0.02,Wunderground v.1.15,2013-04-15 02:50:00,
2013-04-14 22:55:00,41.2,34.9,29.99,South,178,4.0,6.0,78,0.00,,,0.02,Wunderground v.1.15,2013-04-15 02:55:00,
2013-04-14 23:00:00,41.2,34.9,29.98,SSE,153,5.0,5.0,78,0.00,,,0.02,Wunderground v.1.15,2013-04-15 03:00:00,
2013-04-14 23:06:00,41.2,34.5,29.98,South,173,4.0,9.0,77,0.00,,,0.02,Wunderground v.1.15,2013-04-15 03:06:00,
2013-04-14 23:11:00,41.4,34.7,29.98,South,180,6.0,6.0,77,0.00,,,0.02,Wunderground v.1.15,2013-04-15 03:11:00,
2013-04-14 23:16:00,41.5,34.8,29.98,SSE,167,7.0,12.0,77,0.00,,,0.02,Wunderground v.1.15,2013-04-15 03:16:00,
2013-04-14 23:22:00,41.5,34.8,29.97,South,178,5.0,12.0,77,0.00,,,0.02,Wunderground v.1.15,2013-04-15 03:22:00,
2013-04-14 23:28:00,41.6,34.9,29.97,SSE,156,6.0,12.0,77,0.00,,,0.02,Wunderground v.1.15,2013-04-15 03:28:00,
2013-04-14 23:33:00,41.6,34.9,29.97,SSE,151,6.0,10.0,77,0.00,,,0.02,Wunderground v.1.15,2013-04-15 03:33:00,
2013-04-14 23:39:00,41.6,34.9,29.97,SE,139,6.0,10.0,77,0.00,,,0.02,Wunderground v.1.15,2013-04-15 03:39:00,
2013-04-14 23:45:00,41.6,34.9,29.97,SE,144,5.0,11.0,77,0.00,,,0.02,Wunderground v.1.15,2013-04-15 03:45:00,
2013-04-14 23:51:00,41.6,34.9,29.96,SSE,153,5.0,6.0,77,0.00,,,0.02,Wunderground v.1.15,2013-04-15 03:51:00,
2013-04-14 23:55:00,41.6,34.9,29.96,SE,126,5.0,12.0,77,0.00,,,0.02,Wunderground v.1.15,2013-04-15 03:55:00,